Location: ???? ????
(41.4149°N, 22.8816°E)
Time: 15:02:56
(UTC+00:00)

Cosmos 1975 Rocket - Pass Details

Date: 14 July 2020
Orbit: 604 x 633 km, 82.5° (Epoch: 03 August)

Event Time Altitude Azimuth Distance (km) Brightness Sun altitude
Rises 01:56:41 0° 354° (N) 2,907 7.1 -11.5°
Reaches altitude 10° 01:58:56 10° 357° (N) 2,001 6.2 -11.2°
Maximum altitude 02:03:21 71° 81° (E) 665 3.4 -10.6°
Drops below altitude 10° 02:07:47 10° 166° (SSE) 2,001 5.4 -9.9°
Sets 02:10:01 0° 168° (SSE) 2,906 6.2 -9.6°
